Location: Rockland Mine Post Office (historical)
(38.6463°N, 119.0946°W)
Time: 00:45:11
(UTC+00:00)

Daily predictions for brighter satellites

Satellite Brightness Start Highest point End
(mag) Time Altitude Azimuth Time Altitude Azimuth Time Altitude Azimuth
STARLINK-1211 4.2 03:36:13 10° SSW 03:39:59 35° SE 03:43:45 10° ENE
STARLINK-1163 3.7 03:35:55 10° NW 03:40:03 76° SW 03:44:10 10° SE
SPOT 3 Rocket 4.1 03:35:47 10° SE 03:40:35 41° ENE 03:45:24 10° N
STARLINK-1245 4.1 03:41:06 10° SSW 03:44:57 39° SE 03:48:49 10° ENE
STARLINK-1172 3.8 03:40:56 10° NW 03:45:03 68° SW 03:49:08 10° SE
NOSS 2-3 (E) 4.3 03:42:16 10° S 03:45:53 29° ESE 03:49:50 10° NE
Cosmos 1844 3.7 03:43:10 10° S 03:48:44 68° ESE 03:54:25 10° NNE
STARLINK-1233 3.9 03:45:59 10° SSW 03:49:53 43° SE 03:53:50 10° ENE
STARLINK-1145 3.9 03:45:54 10° NW 03:49:59 61° SW 03:54:04 10° SE
Cosmos 1743 3.9 03:47:52 10° NNE 03:51:04 25° ENE 03:54:10 10° SE
Cosmos 1703 Rocket 4.4 03:47:57 10° SSE 03:51:45 31° E 03:55:34 10° NNE
H-2A R/B 2.8 03:47:47 10° S 03:52:36 53° W 03:57:35 10° NNW
Meteor 1-27 Rocket 4.4 03:48:31 10° SSW 03:54:22 63° W 04:00:12 10° N
STARLINK-1204 3.8 03:50:54 10° SSW 03:54:52 48° SE 03:58:52 10° ENE
STARLINK-1161 4.1 03:50:53 10° WNW 03:54:55 55° SW 03:58:58 10° SSE
BREEZE M DEB (TANK) 2.0 03:51:25 10° WNW 03:54:56 76° SW 03:56:52 13° SE
CZ-2C R/B 4.1 03:50:49 10° S 03:55:57 51° W 04:01:23 10° NNW
Cosmos 2034 Rocket 4.2 03:51:19 10° N 03:57:20 52° E 04:03:18 10° SSE
STARLINK-1238 3.7 03:55:47 10° SSW 03:59:48 53° SE 04:03:51 10° ENE
STARLINK-1160 4.2 03:55:53 10° WNW 03:59:53 49° SW 04:03:47 11° SSE
Cosmos 389 Rocket 2.7 04:00:40 10° S 04:03:58 48° E 04:07:20 10° NNE
STARLINK-1201 3.6 04:00:43 10° SW 04:04:47 60° SE 04:08:52 10° NE
STARLINK-1170 4.4 04:00:54 10° WNW 04:04:51 44° SW 04:08:34 11° SSE
Cosmos 1607 4.1 03:58:26 10° NNW 04:04:52 80° ENE 04:10:57 12° SE
BREEZE M DEB (TANK) 4.5 03:59:52 10° NW 04:05:03 88° SW 04:22:38 14° SE
NOSS 2-3 (D) 3.8 04:01:48 10° S 04:05:44 43° ESE 04:10:05 10° NE
Cosmos 1908 Rocket 3.9 04:03:27 10° N 04:07:47 50° E 04:11:48 12° SSE
Cosmos 1975 4.3 04:05:50 10° NNE 04:09:02 22° ENE 04:11:15 15° ESE
Cosmos 1371 Rocket 4.3 04:04:18 10° S 04:09:16 44° ESE 04:14:13 10° NNE
STARLINK-1206 3.5 04:05:39 10° SW 04:09:45 67° SE 04:13:52 10° NE
STARLINK-1159 4.3 04:08:11 10° NW 04:12:11 45° NE 04:15:26 14° ESE
STARLINK-1205 3.5 04:10:36 10° SW 04:14:43 74° SE 04:18:51 10° NE
Resurs 1-3 3.6 04:10:39 10° SSE 04:15:01 80° ENE 04:19:26 10° N
Okean 1 3.4 04:11:24 10° S 04:15:21 60° E 04:19:22 10° NNE
Aureole 1 Rocket 4.5 04:12:21 10° N 04:16:02 27° ENE 04:19:15 16° ESE
USA 229 DEB 3.8 04:09:35 10° SW 04:16:03 77° NW 04:22:51 10° NNE
USA 229 3.8 04:09:43 10° SW 04:16:10 78° NW 04:22:58 10° NNE
STARLINK-1171 4.2 04:13:09 10° NW 04:17:11 49° NE 04:20:13 16° ESE
DMSP B5D2-2 4.4 04:13:11 10° N 04:18:28 73° WNW 04:23:43 10° SSW
Cosmos 2251 Rocket 4.1 04:13:31 10° NNW 04:18:38 57° WSW 04:23:44 10° S
OPS 8737 4.5 04:14:58 10° SSW 04:19:14 81° ESE 04:22:28 10° NE
STARLINK-1218 3.5 04:15:33 10° SW 04:19:40 82° SE 04:23:49 10° NE
Cosmos 1464 Rocket 4.3 04:13:41 10° N 04:20:01 72° W 04:26:21 10° S
STARLINK-1155 4.1 04:18:06 10° NW 04:22:10 53° NE 04:25:00 18° ESE
Cosmos 2242 Rocket 3.8 04:19:09 10° SSW 04:23:32 71° W 04:27:56 10° N
Cosmos 1356 4.2 04:20:34 10° N 04:23:45 35° ENE 04:25:19 22° SE
NOSS 3-1 (C) 3.9 04:18:50 10° SW 04:24:07 59° NW 04:30:12 10° NNE
STARLINK-1254 3.6 04:20:31 10° SW 04:24:39 90° ESE 04:28:48 10° NE
NOSS 3-1 (A) 3.2 04:19:57 10° SSW 04:25:16 86° ESE 04:31:24 10° NE
STARLINK-1166 3.9 04:23:03 10° NW 04:27:09 58° NE 04:29:47 21° ESE
Cosmos 2082 Rocket 4.3 04:25:10 10° NNE 04:27:58 14° NE 04:30:46 10° ENE
Spot 2 Rocket 4.2 04:26:04 19° SE 04:29:11 37° ENE 04:33:48 10° N
STARLINK-1231 3.7 04:25:31 10° SW 04:29:39 82° NW 04:33:48 10° NE
STARLINK-1165 3.8 04:28:01 10° NW 04:32:08 64° NE 04:34:34 23° ESE
STARLINK-1232 3.8 04:30:30 10° SW 04:34:38 75° NW 04:38:47 10° NE
NOSS 2-3 (C) 3.6 04:32:14 10° SSW 04:36:24 86° WNW 04:41:10 10° NNE
Cosmos 1833 Rocket 4.1 04:32:03 10° N 04:36:34 24° NE 04:39:38 16° E
STARLINK-1169 3.7 04:32:59 10° NW 04:37:07 71° NE 04:39:21 26° ESE
SEDSat Delta rocket 4.4 04:31:15 10° WSW 04:37:39 45° S 04:41:33 22° ESE
Cosmos 2056 Rocket 3.4 04:32:46 10° S 04:37:50 70° ESE 04:42:55 10° NNE
Cosmos 1634 Rocket 4.3 04:33:02 10° N 04:39:09 50° E 04:43:07 22° SE
STARLINK-1208 3.9 04:35:29 10° WSW 04:39:35 68° NW 04:43:43 10° NE
STARLINK-1178 3.6 04:37:57 10° NW 04:42:06 78° NE 04:44:08 29° ESE
CZ-2C R/B 3.7 04:37:16 10° N 04:42:38 49° WNW 04:48:01 10° SW
Cosmos 44 Rocket 3.5 04:38:04 10° NW 04:42:56 67° WSW 04:46:07 22° SSE
Cosmos 1515 3.6 04:40:17 17° S 04:43:07 78° E 04:46:56 10° N
H-2A R/B 3.6 04:41:09 10° SW 04:43:42 17° S 04:44:24 17° SSE
Meteor 2-9 Rocket 4.2 04:39:00 10° N 04:44:20 59° ENE 04:47:25 24° SSE
STARLINK-1271 4.1 04:40:30 10° WSW 04:44:35 62° NW 04:48:42 10° NE
BREEZE M DEB (TANK) 3.4 04:35:21 10° SW 04:45:17 76° SSE 04:48:25 10° ENE
STARLINK-1120 3.5 04:42:55 10° NW 04:47:05 85° NE 04:48:55 32° SE
IGS 5A 4.0 04:46:28 29° ESE 04:48:03 42° ENE 04:52:00 10° N
CREW DRAGON DEMO-1 DEB 3.9 04:45:16 10° NW 04:48:11 38° NNE 04:49:11 29° ENE
STARLINK-1087 3.2 04:47:39 10° NW 04:49:07 35° N 04:49:07 35° N
STARLINK-1154 4.3 04:45:31 10° WSW 04:49:36 56° NW 04:53:40 10° NE
Tsikada Rocket 4.2 04:45:30 10° SSW 04:51:41 70° W 04:57:52 10° N
STARLINK-1157 3.8 04:48:47 10° WNW 04:51:58 42° SW 04:52:50 34° S
Okean 3 3.8 04:50:20 31° SSE 04:51:59 47° E 04:56:08 10° NNE
STARLINK-1131 3.5 04:47:53 10° NW 04:52:03 87° SW 04:53:41 36° SE
Terra 3.4 04:52:55 17° E 04:54:21 20° ENE 04:57:44 10° NNE
STARLINK-1197 4.5 04:50:32 10° WSW 04:54:34 51° NW 04:58:37 10° NE
Meteor 1-19 Rocket 4.3 04:51:05 10° SSW 04:56:37 77° W 05:02:22 10° N
Lacrosse 5 4.0 04:53:09 10° NNW 04:56:40 18° NNE 05:00:09 10° ENE
STARLINK-1190 3.6 04:52:50 10° NW 04:56:59 79° SW 04:58:26 39° SE
Cosmos 2278 Rocket 2.1 04:52:51 10° S 04:58:26 67° ESE 05:04:05 10° NNE
Cosmos 1300 Rocket 4.4 04:54:45 10° NNE 04:58:47 33° ENE 04:59:45 30° ESE
Meteor 1-4 Rocket 2.5 04:57:44 27° SSW 04:59:28 77° W 05:02:56 10° N
USA 245 3.1 04:59:10 42° SE 05:00:17 67° ENE 05:03:31 10° N
Okean 1-7 4.1 04:56:52 10° SSW 05:00:59 44° W 05:05:05 10° N
STARLINK-1129 3.6 04:57:52 10° NW 05:02:00 71° SW 05:03:15 42° SSE
Hubble Space Telescope 2.5 05:00:08 10° SW 05:02:12 18° SSW 05:02:12 18° SSW
Cosmos 2221 Rocket 3.6 05:01:47 34° SSE 05:03:35 62° E 05:08:04 10° NNE
STARLINK-1134 3.7 05:02:53 10° NW 05:06:59 64° SW 05:08:03 44° SSE
Cosmos 1452 Rocket 3.8 05:07:10 35° SSE 05:08:48 45° ESE 05:13:49 10° NNE
Resurs 01 Rocket 2.9 05:07:05 15° SSW 05:10:18 36° W 05:14:25 10° NNW
STARLINK-1135 3.8 05:07:51 10° NW 05:11:55 57° SW 05:12:48 45° S
Cosmos 371 Rocket 3.5 05:12:58 41° SE 05:14:02 49° ESE 05:18:43 10° NNE
Cosmos 1420 Rocket 3.9 05:11:47 22° S 05:15:09 78° ESE 05:20:22 10° NNE
Meteor 1-12 Rocket 4.3 05:09:57 10° N 05:15:32 59° ENE 05:17:35 38° SE
Cosmos 407 Rocket 3.9 05:11:02 10° NNW 05:16:18 61° WSW 05:18:55 29° S
ERBS 2.2 05:15:14 36° SW 05:16:27 83° NW 05:19:46 10° NE
STARLINK-1192 4.4 05:18:13 34° E 05:18:13 34° E 05:20:50 10° ENE
STARLINK-1141 4.0 05:12:52 10° WNW 05:16:54 51° SW 05:17:36 45° S
CZ-4B DEB 4.4 05:17:06 63° ENE 05:17:06 63° ENE 05:20:22 10° N
Sich 1 Rocket 3.8 05:15:09 10° NNW 05:19:44 72° W 05:21:29 37° S
STARLINK-1244 4.2 05:22:58 39° ENE 05:22:58 39° ENE 05:25:49 10° NE
STARLINK-1140 4.1 05:17:51 10° WNW 05:21:50 46° SW 05:22:22 43° SSW
Cosmos 1544 4.1 05:21:17 10° NNW 05:24:42 40° W 05:25:44 31° SW
Intercosmos 24 3.5 05:22:22 10° N 05:25:58 69° E 05:26:00 69° E
STARLINK-1138 4.0 05:27:44 46° ENE 05:27:44 46° ENE 05:30:49 10° NE
STARLINK-1156 4.2 05:22:54 10° WNW 05:26:48 41° SW 05:27:10 40° SSW
SL-4 R/B 3.7 05:25:06 10° N 05:26:43 15° NE 05:26:43 15° NE
SPOT 1/Viking Rocket 3.5 05:25:39 40° S 05:27:34 85° WSW 05:32:45 10° NNW
STARLINK-1074 4.4 05:25:09 10° NW 05:29:08 43° NE 05:30:00 37° ENE
SPOT 5 3.1 05:28:35 47° SE 05:29:53 63° ENE 05:35:05 10° N
STARLINK-1203 3.5 05:30:06 70° ESE 05:30:06 70° ESE 05:34:10 10° NE
Meteor 1-13 Rocket 4.1 05:28:56 35° S 05:31:24 85° E 05:37:04 10° N
STARLINK-1143 3.9 05:32:32 52° ENE 05:32:32 52° ENE 05:35:49 10° NE
STARLINK-1148 4.4 05:27:55 10° WNW 05:31:45 37° SW 05:31:56 37° SW
Meteor 2-4 Rocket 4.1 05:29:06 18° SSW 05:33:02 58° W 05:38:20 10° N
Cosmos 724 4.5 05:28:18 10° NW 05:34:09 64° WSW 05:36:16 39° S
COSMOS 2406 3.3 05:28:37 10° NNW 05:34:23 74° WSW 05:36:21 42° S
Okean 2 Rocket 3.0 05:31:53 10° N 05:36:19 78° W 05:37:06 59° SSW
STARLINK-1241 3.7 05:37:14 63° ENE 05:37:14 63° ENE 05:40:48 10° NE
Cosmos 2142 Rocket 4.5 05:31:08 10° N 05:37:16 78° W 05:39:56 36° S
STARLINK-1088 4.1 05:35:03 10° NW 05:39:07 51° NE 05:39:34 49° ENE
STARLINK-1239 3.6 05:42:00 73° ENE 05:42:00 73° ENE 05:45:47 10° NE
STARLINK-1115 3.9 05:40:00 10° NW 05:44:05 56° NE 05:44:20 55° NE
ISS -1.1 05:42:44 10° NNW 05:44:49 15° NNE 05:45:56 13° NE
STARLINK-1240 3.5 05:46:46 81° NNE 05:46:46 81° NNE 05:50:46 10° NE
STARLINK-1076 3.8 05:44:58 10° NW 05:49:05 62° NE 05:49:07 62° NE
Cosmos 1140 Rocket 4.4 05:44:19 10° NW 05:49:08 40° WSW 05:50:48 31° SW
Cosmos 2151 Rocket 3.5 05:44:54 10° N 05:49:27 83° W 05:49:50 73° SSW
GENESIS II 4.3 05:45:34 10° NNW 05:49:16 73° N 05:49:16 73° N
STARLINK-1216 3.6 05:51:32 78° NW 05:51:35 78° NW 05:55:44 10° NE
Okean 1 Rocket 3.7 05:48:49 10° N 05:52:48 45° ENE 05:52:48 45° ENE
STARLINK-1092 3.8 05:49:55 10° NW 05:53:53 67° NNE 05:53:53 67° NNE
Cosmos 2297 3.8 05:54:46 54° ESE 05:54:55 54° ESE 06:00:28 10° NNE
Cosmos 972 Rocket 4.4 05:55:29 55° SE 05:56:28 63° E 06:02:53 10° NNE
STARLINK-1237 3.8 05:56:17 67° WNW 05:56:34 71° NW 06:00:43 10° NE
Nadezhda 4 Rocket 3.9 05:56:18 53° SSE 05:57:45 74° E 06:03:52 10° N
STARLINK-1080 3.8 05:54:55 10° NW 05:58:42 69° N 05:58:42 69° N
Cosmos 1850 Rocket 4.1 05:54:11 10° N 05:59:28 60° ENE 06:00:01 56° E
USA 215 4.5 05:55:04 15° E 05:59:48 35° NNE 06:05:35 10° NNW
ATLAS 3B CENTAUR R/B 4.3 05:53:06 10° SW 05:57:22 20° SSW 05:57:22 20° SSW
ERS-1 Rocket 3.4 06:00:26 46° SW 06:01:24 54° W 06:06:20 10° NNW
STARLINK-1202 3.9 06:01:03 58° WNW 06:01:33 64° NW 06:05:41 10° NE
Cosmos 304 Rocket 3.8 06:02:23 65° ENE 06:02:23 65° ENE 06:06:45 10° NNE
Cosmos 1110 Rocket 4.2 06:04:26 53° E 06:04:26 53° E 06:09:03 10° NNE
STARLINK-1090 3.9 05:59:53 10° NW 06:03:29 65° NNW 06:03:29 65° NNW
Cosmos 332 Rocket 4.0 06:05:52 52° SW 06:06:53 66° WNW 06:11:47 10° NNE
SeaSat 1 2.3 06:02:20 10° NNE 06:07:08 72° E 06:07:08 72° E
Cosmos 1437 Rocket 3.6 06:09:11 44° WNW 06:09:11 44° WNW 06:12:33 10° N
STARLINK-1089 4.1 06:04:52 10° NW 06:08:15 59° NW 06:08:15 59° NW
CARTOSAT-1 4.5 06:10:54 39° WSW 06:11:04 39° W 06:15:08 10° NNW
STARLINK-1246 4.3 06:10:35 43° W 06:11:31 53° NW 06:15:36 10° NE
Cosmos 2082 Rocket 2.0 06:07:09 10° NNW 06:12:55 87° ENE 06:13:32 72° SSE
STARLINK-1107 4.3 06:09:50 10° NW 06:13:02 52° WNW 06:13:02 52° WNW
STARLINK-1224 4.5 06:15:21 37° W 06:16:31 48° NW 06:20:33 10° NE
STARLINK-1066 4.5 06:14:50 10° NW 06:17:50 46° WNW 06:17:50 46° WNW
Cosmos 1833 Rocket 3.2 06:15:20 10° NW 06:20:41 47° WSW 06:21:20 45° SW
Cosmos 2369 Rocket 3.6 06:25:59 25° ENE 06:25:59 25° ENE 06:29:12 10° NE
Cosmos 1331 Rocket 3.9 06:27:44 76° NE 06:27:44 76° NE 06:32:34 10° NNE
Meteor 1-15 Rocket 4.4 06:21:55 10° NNW 06:27:50 70° W 06:28:36 62° SW
Terra 2.6 06:31:48 42° W 06:31:48 42° W 06:36:17 10° NNW
Cosmos 1943 Rocket 2.8 06:34:59 43° ENE 06:34:59 43° ENE 06:39:13 10° NNE
Cosmos 1092 Rocket 3.8 06:35:26 73° S 06:36:06 89° WNW 06:42:16 10° N
Spot 4 4.4 06:38:59 50° NE 06:38:59 50° NE 06:43:13 10° N
Lacrosse 5 2.0 06:35:17 10° NW 06:39:54 70° N 06:39:54 70° N
Cosmos 1461 4.0 06:44:38 43° NNW 06:44:38 43° NNW 06:48:00 10° NNE
ATLAS 2AS CENTAUR R/B 4.0 06:45:27 30° E 06:45:27 30° E 06:51:19 10° NE
Cosmos 1627 Rocket 4.3 06:44:34 77° SSE 06:45:03 84° E 06:51:26 10° N
Thor Agena Rocket 3.7 06:45:46 10° N 06:51:03 72° WNW 06:51:03 72° WNW
Meteor 2-13 Rocket 4.3 06:53:00 79° ESE 06:53:06 79° E 06:59:18 10° N
Cosmos 1975 Rocket 4.1 07:06:32 43° NW 07:06:32 43° NW 07:09:53 10° N
Cosmos 1655 Rocket 4.4 07:07:12 50° E 07:07:12 50° E 07:12:57 10° NNE
Cosmos 1428 Rocket 4.5 07:08:41 71° WSW 07:09:06 74° W 07:15:26 10° N
S3M 4.5 07:05:20 10° N 07:11:14 47° ENE 07:11:21 47° E
ISS -0.5 07:18:42 10° NW 07:18:51 11° NW 07:18:51 11° NW
Cosmos 1553 Rocket 3.9 07:22:27 10° N 07:28:45 89° N 07:28:45 89° N
FALCON 9 R/B 4.2 07:32:38 26° E 07:32:38 26° E 07:38:26 10° E
USA 215 3.1 07:42:23 78° SW 07:42:25 78° SW 07:48:59 10° NW
Aureole 3 Rocket 4.3 07:41:38 10° NNW 07:47:18 60° W 07:47:33 60° WSW
Helios 1B rocket 4.4 07:52:31 10° NNE 07:54:28 25° NE 07:54:28 25° NE
Cosmos 2266 Rocket 3.9 07:58:58 83° NNW 07:58:58 83° NNW 08:04:51 10° N
Cosmos 968 Rocket 4.0 07:53:53 10° NNW 07:57:58 56° N 07:57:58 56° N
NOSS 3-2 (C) 4.2 07:53:31 10° NNW 08:01:14 69° NE 08:04:01 45° ESE
ALOS 2 4.4 08:03:42 26° NW 08:03:42 26° NW 08:05:59 10° NNW
NOSS 3-4 (A) 3.3 08:07:07 79° NE 08:07:07 79° NE 08:12:55 10° NNE
NOSS 3-4 (C) 3.3 08:07:13 78° NE 08:07:13 78° NE 08:13:02 10° NNE
EO 1 Delta rocket 4.4 08:01:02 10° NNE 08:06:28 69° NE 08:06:28 69° NE
Cosmos 2369 Rocket 3.2 08:07:45 37° WNW 08:08:15 38° WNW 08:13:30 10° N
CZ-2D R/B 4.3 08:13:06 10° ENE 08:15:31 13° E 08:15:32 13° E
ATLAS 3B R/B 3.9 08:09:48 10° NNW 08:16:02 36° NE 08:21:15 15° ESE
Cosmos 2098 Rocket 4.0 08:16:44 82° SE 08:17:00 85° E 08:24:17 10° N
Cosmos 1943 Rocket 3.9 08:16:28 21° WNW 08:17:53 23° NW 08:22:15 10° N
Cosmos 1953 4.4 08:16:06 10° NNW 08:17:51 24° NNW 08:17:51 24° NNW
CENTAUR R/B 3.2 08:11:47 10° NNW 08:20:04 77° ENE 08:23:12 45° SE
Cosmos 883 Rocket 4.4 08:14:12 10° N 08:20:08 79° WNW 08:20:08 79° WNW
Cosmos 2228 4.4 08:16:59 10° N 08:19:39 35° NNE 08:19:39 35° NNE
Resurs 1-4 Rocket 4.1 08:21:04 10° NE 08:24:27 17° E 08:24:30 17° E
Meteor 2-5 Rocket 4.0 08:25:09 60° ENE 08:25:09 60° ENE 08:30:07 10° NNE
GEOS 3 Rocket 4.5 08:32:59 39° E 08:34:13 46° NE 08:39:14 10° NNW
ATLAS 2AS CENTAUR R/B 3.3 08:32:51 46° WSW 08:35:10 62° NW 08:43:05 10° NNE
Cosmos 2315 Rocket 3.9 08:30:17 10° N 08:36:24 75° W 08:36:24 75° W
SL-4 R/B 3.1 08:46:57 52° N 08:46:57 52° N 08:51:03 10° NE
NOSS 3-2 (A) 4.4 08:39:31 10° NW 08:46:56 47° WSW 08:46:56 47° WSW
COSMOS 2455 2.9 08:47:15 65° WNW 08:47:30 66° WNW 08:53:30 10° NNE
Nadezhda 2 Rocket 4.3 08:48:17 78° W 08:48:22 78° W 08:54:30 10° N
IRAS Rocket 4.4 08:49:08 64° E 08:49:30 66° ENE 08:55:02 10° N
ATLAS CENTAUR R/B 2.6 08:57:43 41° NNW 08:57:43 41° NNW 09:00:50 10° NNE
Meteor 2-16 Rocket 4.3 09:08:13 75° S 09:08:47 86° E 09:14:57 10° N
RESURS DK-1 3.3 09:18:40 45° N 09:18:40 45° N 09:21:46 10° NNE
Cosmos 2297 Rocket 4.0 09:14:42 10° N 09:19:33 28° ENE 09:24:22 10° ESE
Cosmos 1777 Rocket 4.0 09:18:06 10° NNW 09:22:56 70° WNW 09:22:56 70° WNW
Cosmos 1356 Rocket 4.0 09:22:51 10° N 09:26:27 57° NE 09:26:27 57° NE
Nadezhda 1 Rocket 4.0 09:21:09 10° N 09:27:22 80° E 09:28:51 54° SSE
CZ-4C R/B 3.8 09:29:19 63° NNE 09:29:19 63° NNE 09:33:08 10° N
Cosmos 1867 4.5 09:36:06 10° NW 09:39:46 35° WNW 09:39:46 35° WNW
SL-16 R/B 2.4 09:41:27 46° SSE 09:43:29 88° ENE 09:49:41 10° NNW
Cosmos 1763 Rocket 4.1 09:43:52 39° SE 09:44:50 44° ESE 09:49:40 10° NNE
Cosmos 1758 Rocket 4.1 09:45:10 46° ESE 09:45:33 47° E 09:49:44 10° NNE
Timation 2 Rocket 3.8 09:41:37 10° NNW 09:47:52 68° WSW 09:49:02 55° SSW
Meteor 2-1 Rocket 4.2 09:42:44 10° N 09:48:16 79° E 09:49:50 48° SSE
Cosmos 1697 Rocket 3.6 09:51:53 32° SE 09:53:41 41° ESE 09:58:57 10° NE
Cosmos 2084 4.2 09:54:57 43° WNW 09:55:14 44° NW 09:59:31 10° NNE
Cosmos 2227 Rocket 3.1 09:49:56 10° N 09:55:24 47° ENE 10:00:50 10° SE
CZ-2D R/B 2.0 09:50:49 10° N 09:56:02 68° WNW 09:56:52 58° WSW
STARLINK-1334 4.5 09:57:47 35° NNE 09:57:47 35° NNE 09:59:49 10° NE
ADEOS II 2.8 09:51:51 10° NNE 09:56:53 45° E 09:58:49 32° SSE
STARLINK-1326 4.5 09:58:07 35° NNE 09:58:07 35° NNE 10:00:10 10° NE
Cosmos 1745 Rocket 4.3 09:56:04 44° WSW 09:57:15 49° W 10:03:11 10° N
STARLINK-1323 4.5 09:58:26 35° NNE 09:58:26 35° NNE 10:00:29 10° NE
STARLINK-1349 4.5 09:58:45 35° NNE 09:58:45 35° NNE 10:00:49 10° NE
STARLINK-1336 4.4 09:59:07 35° NNE 09:59:07 35° NNE 10:01:11 10° NE
STARLINK-1331 4.4 09:59:24 36° NNE 09:59:24 36° NNE 10:01:30 10° NE
STARLINK-1344 4.4 09:59:44 36° NNE 09:59:44 36° NNE 10:01:50 10° NE
STARLINK-1343 4.4 10:00:04 36° NNE 10:00:04 36° NNE 10:02:10 10° NE
STARLINK-1346 4.4 10:00:22 37° NNE 10:00:22 37° NNE 10:02:33 10° NE
STARLINK-1328 4.4 10:00:44 36° NNE 10:00:44 36° NNE 10:02:52 10° NE
STARLINK-1354 4.4 10:01:02 36° NNE 10:01:02 36° NNE 10:03:10 10° NE
STARLINK-1347 4.4 10:01:23 36° NNE 10:01:23 36° NNE 10:03:32 10° NE
USA 81 3.9 09:59:40 59° SSW 10:00:38 77° W 10:05:56 10° N
STARLINK-1357 4.3 10:01:41 37° NNE 10:01:41 37° NNE 10:03:51 10° NE
BREEZE-M DEB (TANK) 4.0 09:56:46 10° WNW 10:00:56 73° SW 10:13:14 10° SE
STARLINK-1335 4.3 10:02:01 37° NNE 10:02:01 37° NNE 10:04:11 10° NE
STARLINK-1327 4.3 10:02:20 37° NNE 10:02:20 37° NNE 10:04:31 10° NE
SJ 16-02 2.1 09:57:16 10° N 10:01:35 49° ENE 10:03:51 25° SE
STARLINK-1340 4.3 10:02:41 37° NNE 10:02:41 37° NNE 10:04:53 10° NE
STARLINK-1356 4.3 10:03:00 37° NNE 10:03:00 37° NNE 10:05:13 10° NE
STARLINK-1345 4.3 10:03:20 37° N 10:03:20 37° N 10:05:34 10° NE
STARLINK-1355 4.3 10:03:38 37° N 10:03:38 37° N 10:05:52 10° NE
STARLINK-1321 4.3 10:03:57 37° N 10:03:57 37° N 10:06:12 10° NE
STARLINK-1358 4.3 10:04:19 37° N 10:04:19 37° N 10:06:34 10° NE
STARLINK-1332 4.3 10:04:36 37° N 10:04:36 37° N 10:06:52 10° NE
STARLINK-1348 4.3 10:04:58 37° N 10:04:58 37° N 10:07:14 10° NE
STARLINK-1338 3.8 10:04:45 53° N 10:04:45 53° N 10:07:44 10° NE
STARLINK-1330 4.2 10:05:15 38° N 10:05:15 38° N 10:07:33 10° NE
Resurs 1-4 Rocket 2.3 09:59:25 10° N 10:04:35 55° WNW 10:05:35 47° WSW
STARLINK-1363 4.2 10:05:35 38° N 10:05:35 38° N 10:07:53 10° NE
STARLINK-1337 4.2 10:05:55 38° N 10:05:55 38° N 10:08:13 10° NE
STARLINK-1342 4.2 10:06:14 38° N 10:06:14 38° N 10:08:33 10° NE
STARLINK-1364 4.2 10:06:34 38° N 10:06:34 38° N 10:08:53 10° NE
ARIANE 5 R/B 3.8 10:01:28 10° NNE 10:05:58 32° E 10:08:36 20° SE
STARLINK-1376 4.2 10:06:55 38° N 10:06:55 38° N 10:09:15 10° NE
STARLINK-1360 4.2 10:07:10 38° N 10:07:10 38° N 10:09:32 10° NE
ATLAS 3B R/B 2.9 10:00:19 10° NW 10:06:50 47° WSW 10:08:24 41° SSW
STARLINK-1361 4.2 10:07:36 38° N 10:07:36 38° N 10:09:58 10° NE
STARLINK-1367 4.2 10:07:49 39° N 10:07:49 39° N 10:10:15 10° NE
STARLINK-1366 4.2 10:08:12 38° N 10:08:12 38° N 10:10:36 10° NE
STARLINK-1371 3.8 10:08:44 52° NNW 10:08:44 52° NNW 10:11:54 10° NE
Cosmos 2181 Rocket 4.4 10:03:12 10° N 10:09:37 66° E 10:14:24 19° SSE
CENTAUR R/B 4.2 10:03:42 10° WNW 10:10:18 26° WSW 10:10:19 26° WSW
BREEZE-M R/B 4.2 10:08:47 25° WNW 10:10:20 32° NNW 10:13:10 10° NE
STARLINK-1341 3.8 10:10:44 51° NNW 10:10:44 51° NNW 10:13:58 10° NE
STARLINK-1374 3.8 10:12:47 49° NNW 10:12:47 49° NNW 10:16:07 10° NE
Cosmos 1898 Rocket 4.1 10:07:33 10° N 10:12:50 58° ENE 10:17:52 11° SSE
NPP 3.9 10:08:51 10° N 10:14:06 54° WNW 10:15:27 42° WSW
Cosmos 468 Rocket 3.9 10:13:04 52° SSW 10:14:18 79° WNW 10:19:27 10° NNE
STARLINK-1339 3.8 10:14:49 47° NW 10:14:49 47° NW 10:18:13 10° NE
STARLINK-1377 3.9 10:16:54 45° NW 10:16:59 45° NW 10:20:22 10° NE
Cosmos 1656 3.7 10:15:30 44° SW 10:17:13 67° WNW 10:22:51 10° NNE
Cosmos 1570 Rocket 4.5 10:15:11 33° SSE 10:17:21 56° ESE 10:22:33 10° NNE
STARLINK-1353 3.9 10:17:34 44° NW 10:17:35 44° NW 10:20:53 10° NE
Cosmos 1328 3.8 10:17:08 64° SSE 10:17:41 80° E 10:21:41 10° N
STARLINK-1375 3.9 10:19:32 42° NW 10:19:41 42° NW 10:23:00 10° NE
Meteor 1-21 Rocket 4.4 10:18:59 42° SW 10:20:30 56° WNW 10:26:04 10° N
STARLINK-1350 4.0 10:21:44 39° NW 10:21:57 40° NW 10:25:12 10° NE
Cosmos 1937 Rocket 4.3 10:17:24 10° N 10:22:31 50° ENE 10:27:37 10° SE
STARLINK-1352 4.1 10:25:20 36° NW 10:25:47 38° NW 10:29:06 10° NE
STARLINK-1368 4.2 10:27:28 34° WNW 10:28:02 36° NW 10:31:19 10° NE
Cosmos 2369 3.7 10:25:38 36° S 10:28:03 77° ESE 10:33:43 10° NNE
STARLINK-1369 4.2 10:28:10 33° NW 10:28:40 35° NW 10:31:52 10° NE
Meteor 2-10 Rocket 3.5 10:24:31 10° NNW 10:29:43 61° W 10:31:31 38° SSW
STARLINK-1372 4.4 10:31:48 30° WNW 10:32:33 33° NNW 10:35:48 10° NNE
STARLINK-1378 4.5 10:33:59 28° WNW 10:34:51 32° NNW 10:38:05 10° NNE
Cosmos 1814 Rocket 4.4 10:32:16 26° S 10:35:10 59° ESE 10:40:26 10° NNE
STARLINK-1329 4.5 10:34:41 28° WNW 10:35:35 32° NNW 10:38:49 10° NNE
ATLAS CENTAUR R/B 2.6 10:34:31 10° NW 10:38:01 81° NE 10:46:54 10° SE
CZ-4C R/B 1.9 10:36:36 38° SW 10:38:32 81° WNW 10:44:14 10° NNE
Cosmos 1455 2.5 10:35:06 10° NNW 10:38:39 43° W 10:38:41 43° W
CRYOSAT 2 4.3 10:36:05 10° N 10:41:00 78° W 10:43:22 31° SSW
Cosmos 2285 Rocket 4.2 10:35:22 10° NNW 10:41:45 72° ENE 10:48:03 10° SSE
Cosmos 1825 Rocket 4.1 10:43:59 35° WSW 10:44:57 41° W 10:49:03 10° N
Cosmos 1980 Rocket 2.5 10:42:35 23° S 10:46:05 60° ESE 10:51:37 10° NNE
CZ-2D R/B 4.0 10:44:11 10° NNE 10:48:14 55° E 10:51:00 20° S
Cosmos 2219 3.6 10:43:26 10° NW 10:48:42 42° WSW 10:51:18 26° SSW
ERS-1 4.5 10:46:35 10° NNE 10:51:46 86° WNW 10:55:02 24° SSW
Alouette 2 Rocket 4.4 10:48:50 10° NNW 10:54:07 39° W 10:55:34 30° SW
STARLINK-1212 2.7 10:51:07 10° NW 10:54:11 61° SW 10:57:15 10° SE
Cosmos 540 Rocket 3.4 10:51:32 27° SSW 10:54:23 84° WNW 10:59:32 10° NNE
STARLINK-1105 2.7 10:51:36 10° NW 10:54:38 60° SW 10:57:41 10° SE
Cosmos 1400 Rocket 3.1 10:50:51 10° N 10:54:59 71° E 10:59:03 10° SSE
STARLINK-1247 2.8 10:52:30 10° NW 10:55:35 59° SW 10:58:39 10° SE
STARLINK-1227 2.8 10:52:58 10° NW 10:56:01 58° SW 10:59:02 10° SE
IRS-1C 4.3 10:51:31 10° N 10:56:46 60° WNW 10:59:50 25° SW
STARLINK-1226 2.8 10:53:48 10° WNW 10:56:53 56° SW 10:59:55 10° SE
STARLINK-1205 4.4 10:52:52 10° NW 10:56:57 54° NE 11:01:00 10° ESE
STARLINK-1215 2.8 10:54:46 10° WNW 10:57:50 55° SW 11:00:52 10° SE
BREEZE-M DEB (TANK) 3.7 10:56:04 27° SW 10:58:37 83° SE 11:13:43 10° ENE
STARLINK-1217 2.9 10:56:33 10° WNW 10:59:35 52° SW 11:02:37 10° SSE
GP-B 4.2 10:55:51 10° NNW 10:59:37 27° W 11:00:48 24° WSW
Cosmos 1703 4.4 10:58:57 25° W 10:59:45 27° WNW 11:03:09 10° NNW
Cosmos-2242 3.5 10:56:00 10° NNW 10:59:57 38° W 11:01:23 29° SW
STARLINK-1229 2.9 10:57:28 10° WNW 11:00:30 51° SW 11:03:32 10° SSE
Cosmos 990 Rocket 4.2 10:55:31 10° NNW 11:00:33 48° WSW 11:04:22 17° S
STARLINK-1270 2.9 10:58:20 10° WNW 11:01:23 50° SW 11:04:24 10° SSE
STARLINK-1218 4.2 10:57:48 10° NW 11:01:55 59° NE 11:06:00 10° ESE
Cosmos 2221 3.9 10:57:56 10° N 11:02:01 39° ENE 11:06:05 10° SSE
STARLINK-1189 3.0 11:00:11 10° WNW 11:03:12 47° SW 11:06:12 10° SSE
Cosmos 2297 Rocket 2.6 10:58:27 10° NW 11:03:39 39° WSW 11:07:33 17° SSW
STARLINK-1188 3.0 11:01:05 10° WNW 11:04:06 46° SW 11:07:06 10° SSE
STARLINK-1187 3.9 11:06:08 28° S 11:06:08 28° S 11:08:03 10° SSE
STARLINK-1191 3.1 11:03:34 10° WNW 11:06:32 43° SW 11:09:29 10° SSE
STARLINK-1254 4.0 11:02:47 10° NW 11:06:55 65° NE 11:11:01 10° ESE
STARLINK-1221 3.1 11:04:26 10° WNW 11:07:23 42° SW 11:10:20 10° SSE
Cosmos 2082 3.6 11:02:11 10° NNW 11:07:50 76° WSW 11:13:24 10° SSE
Cosmos 841 Rocket 3.7 11:04:57 24° SW 11:08:03 58° WNW 11:13:13 10° N
STARLINK-1222 3.2 11:05:21 10° WNW 11:08:17 41° SW 11:11:14 10° SSE
STARLINK 1040 3.1 11:08:24 35° S 11:09:00 43° SE 11:11:28 10° ENE
STARLINK-1214 3.2 11:06:15 10° WNW 11:09:11 40° SW 11:12:06 10° SSE
Cosmos 2278 3.7 11:05:45 22° SSW 11:09:28 71° WNW 11:15:08 10° NNE
COBE Rocket 3.8 11:04:46 10° S 11:09:37 78° WSW 11:14:40 10° NNW
STARLINK-1231 3.9 11:07:46 10° NW 11:11:55 72° NE 11:16:02 10° SE
SL-08 R/B 3.5 11:09:03 16° S 11:12:40 49° W 11:17:12 10° NNW
Meteor 1-11 4.5 11:09:42 20° SSW 11:13:25 52° WNW 11:18:53 10° N
Cosmos 1315 Rocket 4.2 11:11:42 10° N 11:15:24 39° ENE 11:19:05 10° SSE
CZ-2C R/B 2.8 11:12:13 10° NNE 11:15:55 73° ESE 11:19:08 13° S
STARLINK-1232 3.7 11:12:45 10° NW 11:16:54 79° NE 11:21:02 10° SE
Cosmos 2322 Rocket 4.1 11:12:41 10° SSE 11:17:08 25° ESE 11:21:35 10° NE
Cosmos 2263 Rocket 4.3 11:13:52 10° N 11:18:47 30° ENE 11:23:39 10° ESE
USA 129 2.5 11:19:48 10° NNE 11:20:52 30° NNE 11:20:52 30° NNE
STARLINK-1208 3.6 11:17:41 10° NW 11:21:51 87° NE 11:25:59 10° SE
H-2A R/B 2.0 11:19:58 10° S 11:24:14 72° WSW 11:28:37 10° NNW
STARLINK-26 4.3 11:24:02 16° SSW 11:26:21 34° SE 11:29:31 10° ENE
STARLINK-1271 3.5 11:22:41 10° NW 11:26:51 85° SW 11:30:59 10° SE
SL-16 R/B 4.2 11:26:33 11° WSW 11:27:47 12° W 11:30:07 10° WNW
Cosmos 2074 Rocket 4.5 11:23:59 15° SW 11:28:52 45° WNW 11:34:53 10° N
deb Chang Zheng 4 4.3 11:26:03 10° NNE 11:30:16 51° E 11:34:25 10° S
Cosmos 2058 3.2 11:26:52 10° S 11:30:59 69° E 11:35:10 10° NNE
STARLINK-1154 3.5 11:27:41 10° NW 11:31:50 77° SW 11:35:57 10° SE
Lacrosse 4 Rocket 1.3 11:28:24 10° NNW 11:32:42 80° WSW 11:36:53 10° SSE
STARLINK-42 4.2 11:33:36 13° SSW 11:36:05 33° SE 11:39:00 10° ENE
ADEOS II 3.6 11:32:19 10° NNW 11:36:14 22° WNW 11:39:46 11° WSW
Cosmos 2150 Rocket 4.1 11:31:18 10° NNW 11:36:30 78° ENE 11:41:37 10° SSE
Cosmos 1408 4.0 11:33:16 10° SSE 11:36:43 38° E 11:40:11 10° NNE
STARLINK-1197 3.5 11:32:39 10° NW 11:36:48 70° SW 11:40:54 10° SE
Cosmos 1697 Rocket 3.9 11:33:38 13° WSW 11:37:45 27° WNW 11:42:33 10° N
CZ-4B R/B 3.2 11:35:59 10° SE 11:38:43 31° ENE 11:41:28 10° N
Cosmos 2227 Rocket 3.3 11:34:46 10° NW 11:39:04 23° W 11:43:21 10° SSW
SJ 16-02 3.2 11:37:36 10° WNW 11:39:40 13° W 11:40:46 12° WSW
USA 234 3.3 11:34:48 10° NE 11:41:23 88° NW 11:47:52 10° SW
STARLINK-1198 3.6 11:37:37 10° NW 11:41:44 63° SW 11:45:49 10° SE
SL-24 DEB 4.2 11:37:50 10° N 11:42:27 69° W 11:47:00 10° SSW
Iridium 2 4.4 11:39:25 10° NNW 11:42:49 33° W 11:46:13 10° SSW
SL-16 R/B 3.0 11:38:31 10° S 11:43:58 52° ESE 11:49:29 10° NNE
ARIANE 5 R/B 3.6 11:40:43 10° N 11:44:55 27° WNW 11:48:57 11° WSW
STARLINK-1199 3.7 11:42:39 10° WNW 11:46:43 56° SW 11:50:46 10° SSE
STARLINK-43 3.6 11:43:36 13° WSW 11:46:46 57° NW 11:50:25 10° NE
STARLINK-1257 4.5 11:46:04 10° SSW 11:48:45 27° SE 11:51:28 10° ENE
ERS-2 3.5 11:46:41 11° SSW 11:49:23 21° W 11:52:15 10° NW
STARLINK-1256 4.4 11:46:59 10° SSW 11:49:42 28° SE 11:52:26 10° ENE
STARLINK-1213 4.4 11:47:49 10° SSW 11:50:33 29° SE 11:53:18 10° ENE
STARLINK-1263 4.4 11:48:42 10° SSW 11:51:27 29° SE 11:54:13 10° ENE
Cosmos 1842 Rocket 4.0 11:47:20 10° NNW 11:51:35 42° W 11:55:47 10° SSW
STARLINK-1210 3.8 11:47:39 10° WNW 11:51:41 50° SW 11:55:41 10° SSE
STARLINK-1259 4.3 11:49:34 10° SSW 11:52:21 30° SE 11:55:08 10° ENE
STARLINK-1265 4.3 11:50:09 10° SSW 11:52:55 30° SE 11:55:42 10° ENE
STARLINK-55 3.2 11:49:58 11° SW 11:52:59 63° SE 11:56:09 10° NE
Cosmos 1825 3.5 11:49:31 10° SSE 11:53:03 40° E 11:56:36 10° NNE
STARLINK-1285 4.3 11:50:27 10° SSW 11:53:14 31° SE 11:56:01 10° ENE
STARLINK-1296 4.2 11:52:12 10° SSW 11:55:01 32° SE 11:57:51 10° ENE
STARLINK-1260 4.2 11:53:05 10° SSW 11:55:55 33° SE 11:58:46 10° ENE
STARLINK-1268 4.2 11:53:35 10° SSW 11:56:24 33° SE 11:59:14 10° ENE
STARLINK-1318 4.1 11:53:58 10° SSW 11:56:49 34° SE 11:59:40 10° ENE
